Погода в Чёбаково

Россия / Ярославская область     57°45′21″N   39°32′13″E
темп.,
°C
ветер,
м/с
пор.,
м/с
влажн.,
%
обл.,
%
осадки,
мм/ч
давл.,
гПа
погр.,
м
3 марта, ср
ср300:00−6сз5128917 0.0 1009501
03:00−7сз5129113 0.0 1011419
06:00−7сз5129296 0.1 1011534
09:00−7зсз5129093 0.1 1011562
12:00−2зсз5109094 0.1 1010811
15:000зсз5109297 0.4 1009864
18:00−1з51190100 0.1 1006855
21:00−2з51294100 0.3 1004861
4 марта, чт
чт400:00−2з61395100 0.7 1000910
03:00−1зюз4119499 0.9 997587
06:00−1зсз61386100 1.1 9951034
09:00−4зсз7148574 1.1 996834
12:00−3зсз71285100 0.1 997930
15:00−3сз6984100 0.3 999854
18:00−6сз499094 0.1 1000338
21:00−10сз249584 0.1 100184
5 марта, пт
пт500:00−12сз23950 0.0 100226
03:00−13сз22960 0.0 100420
06:00−14зсз22970 0.0 100420
09:00−10зсз249442 0.0 1005142
12:00−6з238799 0.1 1006440
15:00−5з239299 0.4 1008384
18:00−7сз259398 0.4 1008136
21:00−11сз239488 0.4 101136
6 марта, сб
сб600:00−11ссз369663 0.1 1012189
03:00−16сз359561 0.1 1014106
06:00−19сз359722 0.0 1015104
09:00−17сз369311 0.0 1015234
12:00−11зсз378659 0.0 1015535
15:00−9з468579 0.1 1014811
18:00−10з3894100 0.1 1013329
21:00−12юз389467 0.1 1012161
7 марта, вс
вс700:00−11ююз4108999 0.0 1008308
03:00−9ююз6139399 0.1 1004776
06:00−7ююз71492100 0.7 997986
09:00−5юз71491100 2.1 9921194
12:00−2зюз71294100 1.5 990988
15:00−5з5867100 1.8 9901132
18:00−9зюз368838 0.1 991165
21:00−11юз349156 0.1 99290